| time (UTC) | temp F | wind direction | speed MPH | gust MPH | rain 1hr in | rain 24hr in | rain mn in | humidity % | barometer mb |
| 20260506033305 | 70 | 337 | 0.0 | 1.0 | 0.00 | 0.00 | 0.00 | 31 | 1011.3 |
| 20260506032802 | 70 | 309 | 0.0 | 2.0 | 0.00 | 0.00 | 0.00 | 31 | 1011.2 |
| 20260506032259 | 71 | 146 | 0.0 | 1.0 | 0.00 | 0.00 | 0.00 | 30 | 1011.3 |
| 20260506031755 | 71 | 104 | 0.0 | 3.0 | 0.00 | 0.00 | 0.00 | 30 | 1010.9 |
| 20260506031253 | 71 | 8 | 1.0 | 2.0 | 0.00 | 0.00 | 0.00 | 30 | 1010.8 |
| 20260506030751 | 71 | 132 | 0.0 | 2.0 | 0.00 | 0.00 | 0.00 | 30 | 1010.7 |
| 20260506030248 | 71 | 175 | 0.0 | 3.0 | 0.00 | 0.00 | 0.00 | 30 | 1010.8 |
| 20260506025745 | 71 | 2 | 0.0 | 3.0 | 0.00 | 0.00 | 0.00 | 30 | 1010.5 |
| 20260506025241 | 72 | 96 | 1.0 | 2.0 | 0.00 | 0.00 | 0.00 | 29 | 1010.7 |
| 20260506024738 | 72 | 89 | 3.0 | 5.0 | 0.00 | 0.00 | 0.00 | 29 | 1010.7 |
| 20260506024235 | 72 | 61 | 0.0 | 5.0 | 0.00 | 0.00 | 0.00 | 28 | 1010.4 |
| 20260506023731 | 72 | 109 | 2.0 | 4.0 | 0.00 | 0.00 | 0.00 | 28 | 1010.4 |
| 20260506023229 | 73 | 108 | 2.0 | 4.0 | 0.00 | 0.00 | 0.00 | 28 | 1010.4 |
| 20260506022725 | 73 | 94 | 3.0 | 3.0 | 0.00 | 0.00 | 0.00 | 28 | 1010.2 |
| 20260506022223 | 73 | 93 | 2.0 | 5.0 | 0.00 | 0.00 | 0.00 | 28 | 1010.1 |
| 20260506021721 | 73 | 71 | 2.0 | 3.0 | 0.00 | 0.00 | 0.00 | 28 | 1010.0 |
| 20260506021218 | 73 | 51 | 2.0 | 4.0 | 0.00 | 0.00 | 0.00 | 28 | 1009.9 |
| 20260506020714 | 74 | 117 | 2.0 | 5.0 | 0.00 | 0.00 | 0.00 | 28 | 1010.0 |
| 20260506020212 | 74 | 88 | 3.0 | 5.0 | 0.00 | 0.00 | 0.00 | 27 | 1009.8 |
| 20260506015709 | 75 | 57 | 5.0 | 5.0 | 0.00 | 0.00 | 0.00 | 26 | 1009.9 |
| 20260506015207 | 76 | 123 | 1.0 | 5.0 | 0.00 | 0.00 | 0.00 | 25 | 1009.8 |
| 20260506014704 | 76 | 205 | 0.0 | 4.0 | 0.00 | 0.00 | 0.00 | 26 | 1009.7 |
| 20260506014200 | 76 | 351 | 0.0 | 5.0 | 0.00 | 0.00 | 0.00 | 26 | 1009.8 |
| 20260506013658 | 75 | 73 | 1.0 | 5.0 | 0.00 | 0.00 | 0.00 | 26 | 1009.7 |
| 20260506013155 | 75 | 143 | 2.0 | 5.0 | 0.00 | 0.00 | 0.00 | 26 | 1009.8 |
| 20260506012651 | 75 | 111 | 0.0 | 7.0 | 0.00 | 0.00 | 0.00 | 26 | 1009.7 |
| 20260506012148 | 77 | 46 | 2.0 | 5.0 | 0.00 | 0.00 | 0.00 | 26 | 1009.7 |
| 20260506011645 | 77 | 51 | 2.0 | 6.0 | 0.00 | 0.00 | 0.00 | 26 | 1009.7 |
| 20260506011141 | 78 | 134 | 4.0 | 4.0 | 0.00 | 0.00 | 0.00 | 25 | 1009.5 |
| 20260506010640 | 79 | 80 | 3.0 | 4.0 | 0.00 | 0.00 | 0.00 | 25 | 1009.6 |
| 20260506010137 | 78 | 89 | 3.0 | 6.0 | 0.00 | 0.00 | 0.00 | 25 | 1009.5 |
| 20260506005634 | 77 | 117 | 2.0 | 6.0 | 0.00 | 0.00 | 0.00 | 26 | 1009.6 |
| 20260506005130 | 77 | 19 | 0.0 | 4.0 | 0.00 | 0.00 | 0.00 | 26 | 1009.5 |
| 20260506004627 | 78 | 80 | 0.0 | 4.0 | 0.00 | 0.00 | 0.00 | 26 | 1009.2 |
| 20260506004124 | 78 | 79 | 2.0 | 6.0 | 0.00 | 0.00 | 0.00 | 26 | 1009.5 |
| 20260506003620 | 80 | 102 | 5.0 | 9.0 | 0.00 | 0.00 | 0.00 | 25 | 1009.2 |
| 20260506003116 | 80 | 38 | 3.0 | 6.0 | 0.00 | 0.00 | 0.00 | 25 | 1009.2 |
| 20260506002612 | 80 | 121 | 1.0 | 5.0 | 0.00 | 0.00 | 0.00 | 24 | 1009.1 |
| 20260506002108 | 80 | 82 | 2.0 | 6.0 | 0.00 | 0.00 | 0.00 | 25 | 1009.0 |
| 20260506001605 | 81 | 44 | 2.0 | 4.0 | 0.00 | 0.00 | 0.00 | 24 | 1009.1 |
| 20260506001102 | 81 | 110 | 5.0 | 5.0 | 0.00 | 0.00 | 0.00 | 24 | 1009.1 |
| 20260506000559 | 81 | 104 | 3.0 | 5.0 | 0.00 | 0.00 | 0.00 | 23 | 1009.1 |
| 20260506000057 | 82 | 117 | 3.0 | 6.0 | 0.00 | 0.00 | 0.00 | 23 | 1008.9 |
| 20260505235555 | 82 | 76 | 0.0 | 4.0 | 0.00 | 0.00 | 0.00 | 24 | 1008.9 |
| 20260505235051 | 82 | 94 | 2.0 | 5.0 | 0.00 | 0.00 | 0.00 | 24 | 1008.9 |
| 20260505234548 | 82 | 31 | 2.0 | 5.0 | 0.00 | 0.00 | 0.00 | 23 | 1008.7 |
| 20260505234045 | 82 | 41 | 2.0 | 6.0 | 0.00 | 0.00 | 0.00 | 24 | 1009.0 |
| 20260505233543 | 81 | 74 | 4.0 | 7.0 | 0.00 | 0.00 | 0.00 | 25 | 1008.9 |
| 20260505233040 | 81 | 37 | 1.0 | 4.0 | 0.00 | 0.00 | 0.00 | 25 | 1009.0 |
| 20260505232538 | 79 | 37 | 2.0 | 3.0 | 0.00 | 0.00 | 0.00 | 26 | 1008.9 |
| 20260505232035 | 78 | 112 | 3.0 | 5.0 | 0.00 | 0.00 | 0.00 | 27 | 1009.1 |
| 20260505231531 | 79 | 106 | 6.0 | 6.0 | 0.00 | 0.00 | 0.00 | 26 | 1008.9 |
| 20260505231030 | 79 | 88 | 3.0 | 6.0 | 0.00 | 0.00 | 0.00 | 26 | 1009.0 |
| 20260505230527 | 81 | 98 | 4.0 | 5.0 | 0.00 | 0.00 | 0.00 | 25 | 1009.2 |
| 20260505230024 | 82 | 113 | 3.0 | 4.0 | 0.00 | 0.00 | 0.00 | 25 | 1009.1 |
| 20260505225521 | 81 | 107 | 3.0 | 7.0 | 0.00 | 0.00 | 0.00 | 25 | 1009.0 |
| 20260505225017 | 81 | 73 | 4.0 | 4.0 | 0.00 | 0.00 | 0.00 | 25 | 1009.2 |
| 20260505224514 | 82 | 84 | 4.0 | 5.0 | 0.00 | 0.00 | 0.00 | 25 | 1009.2 |
| 20260505224011 | 81 | 103 | 2.0 | 7.0 | 0.00 | 0.00 | 0.00 | 25 | 1009.3 |
| 20260505223508 | 81 | 91 | 5.0 | 5.0 | 0.00 | 0.00 | 0.00 | 24 | 1009.2 |
| 20260505223004 | 80 | 108 | 5.0 | 6.0 | 0.00 | 0.00 | 0.00 | 25 | 1009.5 |
| 20260505222501 | 79 | 116 | 3.0 | 5.0 | 0.00 | 0.00 | 0.00 | 27 | 1009.5 |
| 20260505221956 | 78 | 73 | 6.0 | 7.0 | 0.00 | 0.00 | 0.00 | 27 | 1009.8 |
| 20260505221454 | 77 | 95 | 3.0 | 5.0 | 0.00 | 0.00 | 0.00 | 28 | 1009.5 |
| 20260505220951 | 79 | 156 | 2.0 | 7.0 | 0.00 | 0.00 | 0.00 | 27 | 1009.7 |
| 20260505220448 | 79 | 78 | 1.0 | 4.0 | 0.00 | 0.00 | 0.00 | 28 | 1009.7 |
| 20260505215945 | 79 | 165 | 2.0 | 5.0 | 0.00 | 0.00 | 0.00 | 27 | 1009.8 |
| 20260505215443 | 78 | 126 | 2.0 | 5.0 | 0.00 | 0.00 | 0.00 | 28 | 1009.8 |
| 20260505214941 | 79 | 111 | 2.0 | 4.0 | 0.00 | 0.00 | 0.00 | 27 | 1009.7 |
| 20260505214438 | 77 | 29 | 2.0 | 5.0 | 0.00 | 0.00 | 0.00 | 28 | 1009.9 |
| 20260505213936 | 77 | 104 | 3.0 | 6.0 | 0.00 | 0.00 | 0.00 | 29 | 1009.9 |
| 20260505213433 | 77 | 75 | 5.0 | 7.0 | 0.00 | 0.00 | 0.00 | 28 | 1010.1 |
| 20260505212929 | 80 | 93 | 5.0 | 5.0 | 0.00 | 0.00 | 0.00 | 27 | 1009.9 |
| 20260505212426 | 79 | 99 | 1.0 | 4.0 | 0.00 | 0.00 | 0.00 | 27 | 1009.9 |
| 20260505211922 | 79 | 67 | 4.0 | 6.0 | 0.00 | 0.00 | 0.00 | 27 | 1010.3 |
| 20260505211420 | 80 | 45 | 3.0 | 6.0 | 0.00 | 0.00 | 0.00 | 28 | 1010.4 |
| 20260505210916 | 79 | 359 | 0.0 | 3.0 | 0.00 | 0.00 | 0.00 | 28 | 1010.1 |
| 20260505210414 | 79 | 113 | 0.0 | 6.0 | 0.00 | 0.00 | 0.00 | 28 | 1010.3 |
| 20260505205910 | 78 | 336 | 0.0 | 7.0 | 0.00 | 0.00 | 0.00 | 28 | 1010.3 |
| 20260505205409 | 76 | 170 | 2.0 | 5.0 | 0.00 | 0.00 | 0.00 | 29 | 1010.2 |
| 20260505204905 | 77 | 81 | 1.0 | 7.0 | 0.00 | 0.00 | 0.00 | 29 | 1010.5 |
| 20260505204403 | 77 | 147 | 4.0 | 4.0 | 0.00 | 0.00 | 0.00 | 30 | 1010.2 |
| 20260505203900 | 77 | 121 | 4.0 | 6.0 | 0.00 | 0.00 | 0.00 | 29 | 1010.3 |
| 20260505203356 | 77 | 109 | 5.0 | 6.0 | 0.00 | 0.00 | 0.00 | 29 | 1010.4 |
| 20260505202853 | 78 | 138 | 1.0 | 3.0 | 0.00 | 0.00 | 0.00 | 30 | 1010.4 |
| 20260505202349 | 77 | 86 | 3.0 | 3.0 | 0.00 | 0.00 | 0.00 | 29 | 1010.3 |
| 20260505201846 | 77 | 104 | 2.0 | 3.0 | 0.00 | 0.00 | 0.00 | 30 | 1010.5 |
| 20260505201343 | 77 | 99 | 2.0 | 5.0 | 0.00 | 0.00 | 0.00 | 30 | 1010.3 |
| 20260505200842 | 76 | 71 | 5.0 | 7.0 | 0.00 | 0.00 | 0.00 | 31 | 1010.6 |
| 20260505200338 | 77 | 133 | 3.0 | 6.0 | 0.00 | 0.00 | 0.00 | 31 | 1010.6 |
| 20260505195834 | 76 | 113 | 3.0 | 7.0 | 0.00 | 0.00 | 0.00 | 31 | 1010.6 |
| 20260505195331 | 77 | 194 | 1.0 | 4.0 | 0.00 | 0.00 | 0.00 | 30 | 1010.8 |
| 20260505194828 | 78 | 61 | 3.0 | 5.0 | 0.00 | 0.00 | 0.00 | 30 | 1010.8 |
| 20260505194325 | 77 | 133 | 2.0 | 4.0 | 0.00 | 0.00 | 0.00 | 31 | 1010.9 |
| 20260505193820 | 76 | 79 | 3.0 | 8.0 | 0.00 | 0.00 | 0.00 | 32 | 1010.8 |
| 20260505193319 | 77 | 94 | 2.0 | 5.0 | 0.00 | 0.00 | 0.00 | 31 | 1010.6 |
| 20260505192816 | 78 | 99 | 3.0 | 4.0 | 0.00 | 0.00 | 0.00 | 31 | 1010.7 |
| 20260505192315 | 78 | 208 | 1.0 | 4.0 | 0.00 | 0.00 | 0.00 | 32 | 1010.6 |
| 20260505191812 | 78 | 70 | 1.0 | 4.0 | 0.00 | 0.00 | 0.00 | 32 | 1010.9 |
| 20260505191310 | 78 | 125 | 5.0 | 6.0 | 0.00 | 0.00 | 0.00 | 31 | 1011.2 |
| 20260505190806 | 78 | 83 | 2.0 | 5.0 | 0.00 | 0.00 | 0.00 | 31 | 1011.0 |
| 20260505190302 | 77 | 16 | 2.0 | 4.0 | 0.00 | 0.00 | 0.00 | 33 | 1011.0 |
| 20260505185758 | 77 | 175 | 1.0 | 3.0 | 0.00 | 0.00 | 0.00 | 34 | 1010.9 |
| 20260505185254 | 77 | 46 | 2.0 | 4.0 | 0.00 | 0.00 | 0.00 | 34 | 1011.2 |
| 20260505184750 | 77 | 351 | 2.0 | 4.0 | 0.00 | 0.00 | 0.00 | 33 | 1011.2 |
| 20260505184248 | 77 | 344 | 3.0 | 4.0 | 0.00 | 0.00 | 0.00 | 34 | 1011.3 |
| 20260505183744 | 76 | 32 | 2.0 | 5.0 | 0.00 | 0.00 | 0.00 | 35 | 1011.3 |
| 20260505183242 | 76 | 34 | 0.0 | 3.0 | 0.00 | 0.00 | 0.00 | 35 | 1011.4 |
| 20260505182738 | 75 | 65 | 2.0 | 7.0 | 0.00 | 0.00 | 0.00 | 36 | 1011.4 |
| 20260505182235 | 75 | 109 | 1.0 | 2.0 | 0.00 | 0.00 | 0.00 | 37 | 1011.4 |
| 20260505181731 | 73 | 284 | 0.0 | 2.0 | 0.00 | 0.00 | 0.00 | 39 | 1011.7 |
| 20260505181229 | 73 | 135 | 1.0 | 4.0 | 0.00 | 0.00 | 0.00 | 39 | 1011.7 |
| 20260505180725 | 74 | 121 | 5.0 | 5.0 | 0.00 | 0.00 | 0.00 | 40 | 1011.6 |
| 20260505180222 | 74 | 350 | 0.0 | 4.0 | 0.00 | 0.00 | 0.00 | 42 | 1011.6 |
| 20260505175718 | 73 | 352 | 0.0 | 1.0 | 0.00 | 0.00 | 0.00 | 42 | 1011.5 |
| 20260505175215 | 73 | 41 | 0.0 | 4.0 | 0.00 | 0.00 | 0.00 | 41 | 1011.5 |
| 20260505174712 | 74 | 143 | 1.0 | 3.0 | 0.00 | 0.00 | 0.00 | 40 | 1011.5 |
| 20260505174209 | 76 | 132 | 4.0 | 4.0 | 0.00 | 0.00 | 0.00 | 39 | 1011.5 |
| 20260505173704 | 74 | 257 | 0.0 | 3.0 | 0.00 | 0.00 | 0.00 | 42 | 1011.4 |
| 20260505173201 | 75 | 152 | 1.0 | 2.0 | 0.00 | 0.00 | 0.00 | 40 | 1011.4 |
| 20260505172659 | 74 | 330 | 0.0 | 2.0 | 0.00 | 0.00 | 0.00 | 42 | 1011.5 |
| 20260505172155 | 73 | 80 | 2.0 | 3.0 | 0.00 | 0.00 | 0.00 | 41 | 1011.5 |
| 20260505171655 | 73 | 77 | 0.0 | 5.0 | 0.00 | 0.00 | 0.00 | 42 | 1011.3 |
| 20260505171152 | 73 | 57 | 1.0 | 2.0 | 0.00 | 0.00 | 0.00 | 42 | 1011.3 |
| 20260505170649 | 73 | 126 | 0.0 | 4.0 | 0.00 | 0.00 | 0.00 | 44 | 1011.5 |
| 20260505170146 | 72 | 99 | 2.0 | 5.0 | 0.00 | 0.00 | 0.00 | 44 | 1011.5 |
| 20260505165641 | 73 | 82 | 1.0 | 3.0 | 0.00 | 0.00 | 0.00 | 43 | 1011.8 |
| 20260505165137 | 73 | 118 | 2.0 | 5.0 | 0.00 | 0.00 | 0.00 | 43 | 1011.6 |
| 20260505164632 | 72 | 86 | 2.0 | 3.0 | 0.00 | 0.00 | 0.00 | 45 | 1011.6 |
| 20260505164130 | 71 | 107 | 2.0 | 3.0 | 0.00 | 0.00 | 0.00 | 46 | 1011.5 |
| 20260505163628 | 72 | 114 | 5.0 | 5.0 | 0.00 | 0.00 | 0.00 | 44 | 1011.8 |
| 20260505163126 | 71 | 293 | 1.0 | 5.0 | 0.00 | 0.00 | 0.00 | 46 | 1011.7 |
| 20260505162623 | 70 | 126 | 2.0 | 3.0 | 0.00 | 0.00 | 0.00 | 46 | 1011.7 |
| 20260505162121 | 69 | 57 | 0.0 | 3.0 | 0.00 | 0.00 | 0.00 | 47 | 1011.6 |
| 20260505161617 | 68 | 144 | 2.0 | 3.0 | 0.00 | 0.00 | 0.00 | 48 | 1011.7 |
| 20260505161115 | 68 | 29 | 1.0 | 3.0 | 0.00 | 0.00 | 0.00 | 49 | 1011.9 |
| 20260505160613 | 69 | 94 | 1.0 | 5.0 | 0.00 | 0.00 | 0.00 | 48 | 1011.5 |
| 20260505160110 | 69 | 89 | 1.0 | 3.0 | 0.00 | 0.00 | 0.00 | 50 | 1011.7 |
| 20260505153049 | 68 | 129 | 2.0 | 3.0 | 0.00 | 0.00 | 0.00 | 51 | 1011.8 |
| 20260505152546 | 68 | 145 | 1.0 | 4.0 | 0.00 | 0.00 | 0.00 | 52 | 1011.7 |
| 20260505152042 | 68 | 130 | 3.0 | 4.0 | 0.00 | 0.00 | 0.00 | 53 | 1011.9 |
| 20260505151537 | 69 | 115 | 3.0 | 5.0 | 0.00 | 0.00 | 0.00 | 52 | 1011.5 |
| 20260505151035 | 69 | 101 | 6.0 | 7.0 | 0.00 | 0.00 | 0.00 | 52 | 1011.5 |
| 20260505150531 | 70 | 351 | 0.0 | 5.0 | 0.00 | 0.00 | 0.00 | 52 | 1011.5 |
| 20260505140456 | 66 | 100 | 1.0 | 2.0 | 0.00 | 0.00 | 0.00 | 56 | 1011.6 |
| 20260505124909 | 66 | 272 | 0.0 | 1.0 | 0.00 | 0.00 | 0.00 | 55 | 1010.5 |
| 20260505124406 | 66 | 324 | 0.0 | 2.0 | 0.00 | 0.00 | 0.00 | 55 | 1010.4 |
| 20260505123902 | 65 | 324 | 0.0 | 1.0 | 0.00 | 0.00 | 0.00 | 55 | 1010.4 |
| 20260505123359 | 65 | 289 | 1.0 | 2.0 | 0.00 | 0.00 | 0.00 | 56 | 1010.4 |
| 20260505122855 | 65 | 345 | 0.0 | 2.0 | 0.00 | 0.00 | 0.00 | 55 | 1010.4 |
| 20260505122352 | 65 | 80 | 0.0 | 2.0 | 0.00 | 0.00 | 0.00 | 55 | 1010.3 |
| 20260505121849 | 65 | 329 | 1.0 | 1.0 | 0.00 | 0.00 | 0.00 | 55 | 1010.2 |
| 20260505121346 | 65 | 291 | 1.0 | 2.0 | 0.00 | 0.00 | 0.00 | 55 | 1010.4 |
| 20260505120842 | 65 | 157 | 0.0 | 1.0 | 0.00 | 0.00 | 0.00 | 55 | 1010.3 |
| 20260505120338 | 65 | 161 | 0.0 | 1.0 | 0.00 | 0.00 | 0.00 | 55 | 1010.3 |
| 20260505115837 | 66 | 264 | 0.0 | 1.0 | 0.00 | 0.00 | 0.00 | 54 | 1010.1 |
| 20260505115334 | 66 | 284 | 1.0 | 2.0 | 0.00 | 0.00 | 0.00 | 55 | 1010.3 |
| 20260505114832 | 66 | 330 | 0.0 | 2.0 | 0.00 | 0.00 | 0.00 | 55 | 1010.1 |
| 20260505114328 | 66 | 346 | 0.0 | 2.0 | 0.00 | 0.00 | 0.00 | 55 | 1010.3 |
| 20260505113825 | 66 | 122 | 0.0 | 1.0 | 0.00 | 0.00 | 0.00 | 54 | 1010.0 |
| 20260505113322 | 66 | 121 | 1.0 | 2.0 | 0.00 | 0.00 | 0.00 | 54 | 1010.1 |
| 20260505112817 | 66 | 291 | 1.0 | 2.0 | 0.00 | 0.00 | 0.00 | 53 | 1010.0 |
| 20260505112315 | 66 | 256 | 0.0 | 1.0 | 0.00 | 0.00 | 0.00 | 54 | 1010.2 |
| 20260505111810 | 66 | 334 | 1.0 | 2.0 | 0.00 | 0.00 | 0.00 | 52 | 1010.3 |
| 20260505111306 | 67 | 268 | 0.0 | 1.0 | 0.00 | 0.00 | 0.00 | 52 | 1010.0 |
| 20260505110802 | 67 | 104 | 0.0 | 2.0 | 0.00 | 0.00 | 0.00 | 52 | 1010.0 |
| 20260505110300 | 67 | 305 | 0.0 | 1.0 | 0.00 | 0.00 | 0.00 | 52 | 1009.7 |
| 20260505101734 | 68 | 108 | 1.0 | 2.0 | 0.00 | 0.00 | 0.00 | 49 | 1010.8 |
| 20260505101230 | 68 | 125 | 2.0 | 3.0 | 0.00 | 0.00 | 0.00 | 49 | 1010.8 |
| 20260505100726 | 68 | 53 | 0.0 | 2.0 | 0.00 | 0.00 | 0.00 | 48 | 1010.4 |
| 20260505100223 | 69 | 272 | 1.0 | 2.0 | 0.00 | 0.00 | 0.00 | 48 | 1010.5 |
| 20260505095718 | 69 | 137 | 1.0 | 3.0 | 0.00 | 0.00 | 0.00 | 46 | 1010.6 |
| 20260505095217 | 69 | 345 | 0.0 | 3.0 | 0.00 | 0.00 | 0.00 | 46 | 1010.5 |
| 20260505094712 | 69 | 159 | 1.0 | 3.0 | 0.00 | 0.00 | 0.00 | 45 | 1010.7 |
| 20260505094208 | 69 | 273 | 0.0 | 2.0 | 0.00 | 0.00 | 0.00 | 46 | 1010.9 |
| 20260505093705 | 69 | 182 | 0.0 | 3.0 | 0.00 | 0.00 | 0.00 | 45 | 1010.8 |
| 20260505093203 | 69 | 337 | 0.0 | 2.0 | 0.00 | 0.00 | 0.00 | 45 | 1010.9 |
| 20260505092659 | 69 | 129 | 0.0 | 3.0 | 0.00 | 0.00 | 0.00 | 45 | 1011.0 |
| 20260505092158 | 69 | 86 | 3.0 | 3.0 | 0.00 | 0.00 | 0.00 | 45 | 1010.7 |
| 20260505091654 | 69 | 150 | 0.0 | 2.0 | 0.00 | 0.00 | 0.00 | 44 | 1011.2 |
| 20260505091152 | 69 | 264 | 0.0 | 3.0 | 0.00 | 0.00 | 0.00 | 46 | 1011.2 |
| 20260505090650 | 70 | 308 | 0.0 | 2.0 | 0.00 | 0.00 | 0.00 | 45 | 1010.9 |
| 20260505090148 | 70 | 284 | 0.0 | 2.0 | 0.00 | 0.00 | 0.00 | 44 | 1010.9 |
| 20260505085645 | 70 | 95 | 0.0 | 2.0 | 0.00 | 0.00 | 0.00 | 44 | 1011.3 |
| 20260505085143 | 70 | 356 | 1.0 | 3.0 | 0.00 | 0.00 | 0.00 | 44 | 1011.2 |
| 20260505084640 | 70 | 314 | 0.0 | 2.0 | 0.00 | 0.00 | 0.00 | 43 | 1011.3 |
| 20260505084139 | 70 | 167 | 0.0 | 2.0 | 0.00 | 0.00 | 0.00 | 42 | 1011.2 |
| 20260505083636 | 70 | 15 | 0.0 | 2.0 | 0.00 | 0.00 | 0.00 | 43 | 1011.3 |
| 20260505083132 | 70 | 215 | 1.0 | 2.0 | 0.00 | 0.00 | 0.00 | 42 | 1011.3 |
| 20260505082456 | 70 | 156 | 0.0 | 1.0 | 0.00 | 0.00 | 0.00 | 40 | 1011.3 |
| 20260505081953 | 70 | 156 | 0.0 | 1.0 | 0.00 | 0.00 | 0.00 | 40 | 1011.3 |
| 20260505081450 | 70 | 330 | 0.0 | 1.0 | 0.00 | 0.00 | 0.00 | 41 | 1011.5 |
| 20260505080946 | 70 | 301 | 0.0 | 0.0 | 0.00 | 0.00 | 0.00 | 40 | 1011.7 |
| 20260505080442 | 70 | 271 | 0.0 | 1.0 | 0.00 | 0.00 | 0.00 | 40 | 1011.5 |
| 20260505075938 | 71 | 280 | 1.0 | 2.0 | 0.00 | 0.00 | 0.00 | 39 | 1011.5 |
| 20260505075435 | 71 | 284 | 0.0 | 1.0 | 0.00 | 0.00 | 0.00 | 39 | 1011.4 |
| 20260505074932 | 71 | 52 | 0.0 | 1.0 | 0.00 | 0.00 | 0.00 | 39 | 1011.6 |
| 20260505074430 | 71 | 221 | 0.0 | 1.0 | 0.00 | 0.00 | 0.00 | 40 | 1011.5 |
| 20260505073927 | 71 | 305 | 0.0 | 1.0 | 0.00 | 0.00 | 0.00 | 38 | 1011.5 |
| 20260505073424 | 71 | 312 | 0.0 | 0.0 | 0.00 | 0.00 | 0.00 | 40 | 1011.5 |
| 20260505072921 | 71 | 342 | 0.0 | 0.0 | 0.00 | 0.00 | 0.00 | 38 | 1011.4 |
| 20260505072418 | 71 | 245 | 0.0 | 0.0 | 0.00 | 0.00 | 0.00 | 39 | 1011.4 |
| 20260505071914 | 71 | 284 | 0.0 | 1.0 | 0.00 | 0.00 | 0.00 | 39 | 1011.3 |
| 20260505071410 | 71 | 250 | 0.0 | 1.0 | 0.00 | 0.00 | 0.00 | 38 | 1011.5 |
| 20260505070908 | 71 | 284 | 0.0 | 0.0 | 0.00 | 0.00 | 0.00 | 37 | 1011.5 |
| 20260505070404 | 71 | 312 | 0.0 | 1.0 | 0.00 | 0.00 | 0.00 | 38 | 1011.4 |
| 20260505065900 | 71 | 104 | 0.0 | 0.0 | 0.00 | 0.00 | 0.00 | 40 | 1011.4 |
| 20260505065357 | 71 | 118 | 0.0 | 1.0 | 0.00 | 0.00 | 0.00 | 40 | 1011.3 |
| 20260505064854 | 71 | 111 | 0.0 | 1.0 | 0.00 | 0.00 | 0.00 | 43 | 1011.3 |
| 20260505064351 | 71 | 128 | 0.0 | 1.0 | 0.00 | 0.00 | 0.00 | 43 | 1011.5 |
| 20260505063849 | 71 | 113 | 0.0 | 1.0 | 0.00 | 0.00 | 0.00 | 43 | 1011.4 |
| 20260505063344 | 71 | 284 | 0.0 | 1.0 | 0.00 | 0.00 | 0.00 | 43 | 1011.2 |
| 20260505062841 | 71 | 327 | 0.0 | 0.0 | 0.00 | 0.00 | 0.00 | 43 | 1011.0 |
| 20260505062339 | 71 | 245 | 0.0 | 0.0 | 0.00 | 0.00 | 0.00 | 43 | 1011.0 |
| 20260505061836 | 71 | 324 | 0.0 | 0.0 | 0.00 | 0.00 | 0.00 | 42 | 1010.9 |
| 20260505061334 | 72 | 284 | 0.0 | 0.0 | 0.00 | 0.00 | 0.00 | 42 | 1010.9 |
| 20260505060831 | 72 | 220 | 0.0 | 0.0 | 0.00 | 0.00 | 0.00 | 42 | 1010.8 |
| 20260505060328 | 72 | 77 | 0.0 | 0.0 | 0.00 | 0.00 | 0.00 | 43 | 1011.0 |
| 20260505055824 | 72 | 77 | 0.0 | 0.0 | 0.00 | 0.00 | 0.00 | 43 | 1011.0 |
| 20260505055320 | 71 | 158 | 0.0 | 1.0 | 0.00 | 0.00 | 0.00 | 43 | 1010.7 |
| 20260505054817 | 71 | 245 | 0.0 | 1.0 | 0.00 | 0.00 | 0.00 | 44 | 1010.7 |
| 20260505054314 | 71 | 305 | 0.0 | 1.0 | 0.00 | 0.00 | 0.00 | 44 | 1010.7 |
| 20260505053813 | 71 | 227 | 0.0 | 1.0 | 0.00 | 0.00 | 0.00 | 43 | 1010.9 |
| 20260505053309 | 72 | 261 | 0.0 | 1.0 | 0.00 | 0.00 | 0.00 | 43 | 1010.7 |
| 20260505052806 | 72 | 324 | 0.0 | 0.0 | 0.00 | 0.00 | 0.00 | 44 | 1011.3 |
| 20260505052304 | 72 | 271 | 0.0 | 0.0 | 0.00 | 0.00 | 0.00 | 44 | 1011.0 |
| 20260505051800 | 72 | 324 | 0.0 | 0.0 | 0.00 | 0.00 | 0.00 | 43 | 1011.2 |
| 20260505051258 | 72 | 264 | 0.0 | 0.0 | 0.00 | 0.00 | 0.00 | 43 | 1011.3 |
| 20260505050755 | 72 | 235 | 0.0 | 0.0 | 0.00 | 0.00 | 0.00 | 43 | 1011.4 |
| 20260505050254 | 72 | 261 | 0.0 | 1.0 | 0.00 | 0.00 | 0.00 | 43 | 1011.3 |
| 20260505041729 | 73 | 324 | 0.0 | 0.0 | 0.00 | 0.00 | 0.00 | 41 | 1011.5 |
| 20260505041226 | 73 | 245 | 0.0 | 0.0 | 0.00 | 0.00 | 0.00 | 41 | 1011.4 |
| 20260505040723 | 73 | 352 | 0.0 | 2.0 | 0.00 | 0.00 | 0.00 | 40 | 1011.0 |
| 20260505040220 | 73 | 210 | 0.0 | 1.0 | 0.00 | 0.00 | 0.00 | 41 | 1011.4 |
| 20260505035717 | 73 | 77 | 0.0 | 1.0 | 0.00 | 0.00 | 0.00 | 40 | 1011.4 |
| 20260505035213 | 73 | 104 | 0.0 | 1.0 | 0.00 | 0.00 | 0.00 | 41 | 1011.5 |
| 20260505034710 | 73 | 284 | 0.0 | 0.0 | 0.00 | 0.00 | 0.00 | 42 | 1011.5 |
| 20260505034207 | 73 | 324 | 0.0 | 0.0 | 0.00 | 0.00 | 0.00 | 42 | 1010.9 |
| 20260505033703 | 73 | 125 | 0.0 | 0.0 | 0.00 | 0.00 | 0.00 | 43 | 1011.0 |